Location: Berville
(49.1893°N, 2.0748°E)
Time: 18:41:17
(UTC+00:00)

FENGYUN 1C DEB - Pass Details

Date: 27 February 2024
Orbit: 768 x 960 km, 99.0° (Epoch: 12 April)

Event Time Altitude Azimuth Distance (km) Brightness Sun altitude
Exits shadow 20:32:49 60° 19° (NNE) 1,093 ? -29.9°
Drops below altitude 10° 20:37:52 10° 349° (NNW) 2,681 ? -30.7°
Sets 20:40:18 0° 347° (NNW) 3,613 ? -31.1°
